星链-5567 (STARLINK-5567 )

导读

STARLINK-5567是美国太空探索技术公司SpaceX星链星座的组成卫星,于北京时间2023年1月26日发射入轨,星链星座旨在为全球用户提供覆盖广泛的低轨卫星互联网服务,该卫星承担星链网络的通信转发任务,属于星链卫星的批量部署批次,进一步扩充了星链低轨通信星座的在轨规模。

基本信息
目录编号:
55377
目录名称:
STARLINK-5567
国际标识:
2023-013AY
轨道中心:
EARTH
卫星名称:
星链-5567
卫星全名:
星链-5567 (STARLINK-5567 )
卫星状态:
在轨 (已飞行1317 天)
发射日期:
2023-01-26 UTC
国别 :
美国 (US)
星等 :
--
轨道信息
数据来源 国际轨道数据
星历时间: 2026-09-04T02:12:00+0800
12小时前
查看轨道信息
半长轴: 6861.16km
偏心率: 0.0001631
轨道倾角: 43.004°
近地点辐角 259.402°
升交点赤经 32.709°
平近点角 100.665°
近地点: 481.903km
远地点: 484.143km
周期: 94.266分钟
每日圈数: 15.27589
详细信息
固有亮度:
5
最大亮度:
2.5
卫星平台:
Starlink v1.5
覆盖范围:
全球
运营商:
太空探索技术公司
运营商所在国:
美国
制造商(研发单位):
太空探索技术公司
制造商所在国:
美国
使用方式:
暂无
卫星简介
星链(Starlink)计划是由太空探索技术公司(SpaceX)提出的一个巨型低轨卫星互联网星座项目,计划在2019年至2024年间在太空搭建由约1.2万颗卫星组成的“星链”网络,其中1584颗将部署在地球上空550千米处的近地轨道,并从2020年开始工作。该卫星仍在工作。
2D轨道图
3D轨道图
轨道高度分析图
轨道倾角分析图
轨道综合分析图
查看轨道综合分析图
交会数据列表
事件ID 空间交会对象 最接近时刻(TCA) 交会距离 交会风险概率(CRP) 交会风险指数(CRI) 操作
CDM_260904-203905-537706-659322
2026-09-04T
20:39:33+0000
0.369 km
远距离
2.694874E-4 高风险 0.84
CDM_260905-020405-537706-314521
2026-09-05T
02:04:26+0000
0.419 km
远距离
1.65082E-4 高风险 0.79
CDM_260905-000605-537706-383121
2026-09-05T
00:06:56+0000
0.872 km
远距离
3.261817E-5 中风险 0.65
CDM_260904-220905-537706-314521
2026-09-04T
22:09:03+0000
0.941 km
远距离
1.574404E-5 中风险 0.59
CDM_260905-014105-537706-383121
2026-09-05T
01:41:05+0000
1.176 km
极远距离
1.166716E-5 中风险 0.56
CDM_260904-221305-537706-659321
2026-09-04T
22:13:42+0000
1.620 km
极远距离
3.430998E-6 低风险 0.46
CDM_260904-234305-537706-314521
2026-09-04T
23:43:12+0000
1.535 km
极远距离
3.04547E-6 低风险 0.45
CDM_260905-003005-537706-314521
2026-09-05T
00:30:16+0000
1.736 km
极远距离
2.12618E-6 低风险 0.42
CDM_260905-020305-537705-750521
2026-09-05T
02:03:20+0000
1.777 km
极远距离
1.783555E-6 低风险 0.4
CDM_260903-121505-301705-537721
2026-09-03T
12:15:19+0000
1.983 km
极远距离
1.728549E-6 低风险 0.4